Location: Buchdorf
(48.7842°N, 10.8275°E)
Time: 23:20:20
(UTC+00:00)

N. Korean satellite - Pass Details

Date: 07 March 2021
Orbit: 453 x 499 km, 97.2° (Epoch: 12 April)

Event Time Altitude Azimuth Distance (km) Brightness Sun altitude
Rises 03:36:54 0° 32° (NNE) 2,537 11.0 -21.9°
Reaches altitude 10° 03:39:57 10° 61° (ENE) 1,664 10.4 -21.5°
Maximum altitude 03:41:40 13° 90° (E) 1,488 10.0 -21.2°
Drops below altitude 10° 03:43:24 10° 119° (ESE) 1,669 9.9 -20.9°
Sets 03:46:26 0° 148° (SSE) 2,554 10.4 -20.4°
